Theta_e
310 312 312 312 310 312 313 313 313 313 313 314 312 312 312 312 312 311 312 312 312 313 315 316 318 321 325 337 338 343 345 345 344 341 341 342 342 340 339 338 338 338 339 339
312 313 313 312 313 314 315 315 314 313 314 313 313 314 312 313 311 311 312 312 312 313 313 314 317 324 335 338 341 342 345 345 344 343 343 344 345 348 349 349 348 346 346 347
312 314 315 314 314 315 314 315 315 315 315 314 314 312 312 313 312 312 312 313 313 312 313 314 317 324 335 340 344 345 345 344 344 346 347 350 350 350 350 348 346 346 343 342
314 314 316 316 316 314 315 314 315 315 314 313 311 311 310 312 313 315 314 312 311 312 312 313 316 321 327 337 341 344 346 349 351 352 351 351 349 347 346 343 337 334 331 330
315 316 316 316 315 314 314 315 314 314 312 311 312 310 310 312 315 313 313 311 311 311 311 311 314 320 322 327 334 338 340 340 341 345 344 343 338 333 330 328 328 328 328 329
315 315 315 315 315 315 314 313 309 308 308 310 310 312 312 314 314 313 313 314 314 310 310 311 313 318 321 324 325 330 334 335 333 331 329 328 327 328 328 326 326 325 325 330
315 314 315 316 317 313 311 308 310 311 310 312 312 313 312 313 316 317 319 316 313 310 310 314 317 319 323 325 328 329 329 328 327 326 326 325 324 322 322 325 325 325 328 329
316 317 318 319 319 320 317 310 309 313 311 310 314 317 315 323 319 318 316 315 314 312 312 315 318 320 322 324 325 327 326 325 324 323 322 322 322 325 327 327 328 330 328 325
317 320 322 322 321 320 319 320 313 313 314 316 315 316 316 322 321 319 317 316 314 312 311 312 311 314 317 320 320 322 322 322 321 321 321 322 326 327 329 330 329 326 324 322
318 323 322 322 321 321 322 319 323 317 323 322 318 319 316 325 323 320 318 313 312 310 310 309 310 312 316 318 319 320 321 321 322 323 324 325 327 327 326 325 323 323 321 320
319 321 323 320 321 320 320 324 324 320 324 325 324 321 323 323 322 321 320 319 316 312 309 309 311 315 317 319 320 320 320 320 321 321 320 319 319 319 321 322 319 319 319 318
320 320 324 323 320 320 318 320 321 325 324 320 320 321 322 323 323 322 321 321 319 315 311 311 312 313 316 317 318 318 318 318 317 317 317 317 317 318 318 317 317 316 316 315
319 318 321 320 316 317 320 320 319 320 320 323 323 324 321 322 322 321 319 319 320 319 318 314 312 313 314 315 316 317 317 317 317 316 317 316 316 316 315 315 315 315 314 314
316 317 317 319 318 317 319 318 317 318 323 323 326 325 323 322 321 321 320 318 316 316 317 314 311 311 312 313 313 313 314 315 315 315 315 315 315 315 314 314 314 314 314 313
313 316 317 316 316 316 316 316 314 317 317 321 318 322 320 317 316 316 318 319 317 316 314 314 311 308 309 311 312 313 313 313 313 314 314 314 314 314 314 314 314 314 314 314
312 314 314 316 315 314 315 315 317 317 316 315 317 318 314 315 315 315 315 313 312 310 309 309 310 310 309 310 311 311 310 310 309 310 312 313 314 314 314 314 313 313 313 313
313 315 313 314 314 314 313 312 312 317 316 315 316 314 314 315 313 309 308 308 308 308 307 307 307 307 307 308 308 308 308 308 308 309 309 309 310 311 312 312 312 312 312 312
312 315 314 317 311 315 310 315 319 321 320 317 316 315 313 310 309 307 306 306 306 306 306 304 303 304 306 306 305 306 306 307 307 307 307 308 308 309 309 309 309 309 310 310
309 313 316 315 314 312 314 319 318 320 321 318 317 315 315 314 309 309 306 306 306 305 304 303 304 304 304 304 304 303 303 302 302 302 303 304 304 304 304 304 305 306 306 306
312 314 315 315 311 316 321 318 318 316 320 315 317 316 310 309 310 308 305 304 304 303 303 302 303 303 302 302 301 300 299 299 299 300 300 300 301 301 302 302 302 303 303 303
317 316 316 315 316 313 316 316 317 321 315 314 309 308 307 307 305 304 303 303 302 302 302 302 301 300 300 299 298 298 298 297 298 298 298 298 298 298 299 299 300 301 301 302
315 318 317 317 318 315 313 316 319 315 315 313 310 306 306 305 304 303 302 301 300 301 300 300 299 298 298 297 297 296 296 297 296 295 295 295 295 295 296 297 298 298 299 299
314 316 317 318 313 313 314 316 314 313 313 312 307 305 304 303 303 301 300 298 299 299 299 298 297 296 295 295 295 295 295 295 294 294 294 294 294 294 295 295 296 297 298 299
311 312 316 313 314 315 312 312 310 311 311 309 305 305 303 301 299 299 299 298 297 297 296 295 294 294 293 293 293 293 292 292 292 292 292 293 293 293 294 295 297 297 297 298
310 309 311 312 314 313 312 310 309 309 305 304 303 301 299 299 299 298 297 296 295 294 293 293 292 292 292 292 291 291 291 291 291 291 292 292 292 293 293 294 295 296 298 298
310 312 314 311 311 309 307 303 303 303 302 302 299 298 297 298 296 296 295 294 292 292 292 291 291 290 290 290 290 290 290 290 291 291 291 291 292 292 293 293 293 294 294 295
Wind_Speed
6 4 8 8 7 2 3 4 5 6 10 5 7 6 10 10 5 9 11 8 9 11 12 20 17 9 20 26 30 33 34 33 32 27 26 24 25 23 22 25 25 26 25 25
2 6 11 7 5 5 6 4 6 8 6 3 7 7 8 6 7 11 13 10 9 5 7 8 13 17 21 26 28 32 35 33 31 32 27 18 18 18 17 14 12 16 19 21
7 9 3 4 8 6 6 4 6 7 7 3 2 6 6 5 4 4 6 6 6 10 11 8 8 19 25 26 30 33 32 30 27 23 20 17 14 12 13 13 11 9 8 7
6 9 10 5 7 7 6 8 10 7 3 3 3 4 5 6 7 2 2 3 9 9 8 5 9 9 27 31 28 26 25 23 23 24 24 24 21 13 14 11 8 7 8 9
7 2 2 3 5 5 10 6 10 6 4 5 2 4 7 6 7 7 5 7 9 10 9 9 10 20 21 28 31 30 29 28 27 27 26 23 19 13 11 6 4 5 8 11
7 3 3 5 5 4 6 2 7 5 3 1 5 5 5 3 4 7 7 9 9 10 11 9 8 10 17 25 27 31 31 26 24 22 19 17 15 12 7 4 4 7 9 8
5 5 4 5 4 4 5 6 2 3 2 5 3 3 7 7 5 3 4 7 9 7 7 8 11 10 15 23 26 28 29 25 21 18 13 9 6 4 6 6 3 4 7 9
4 5 6 2 3 3 1 5 5 4 3 4 4 3 4 4 3 3 4 7 11 10 6 8 7 11 20 27 27 25 22 19 14 11 10 8 8 11 10 7 5 2 2 5
4 4 1 4 2 4 3 2 4 5 3 2 3 5 5 5 7 6 7 15 14 11 10 12 10 11 16 19 16 16 15 13 11 10 9 10 12 12 11 8 5 3 2 4
4 2 3 2 1 3 2 6 3 3 2 2 4 3 4 2 3 3 5 6 8 9 9 7 7 11 13 15 14 13 12 12 11 11 11 10 10 8 6 5 3 4 3 4
3 3 4 2 3 2 5 3 5 3 3 4 3 5 3 4 3 5 3 3 5 6 7 5 4 7 15 18 19 18 16 15 14 12 10 8 6 6 6 6 7 8 8 8
2 3 2 4 2 5 1 3 3 4 4 3 3 5 1 3 3 2 5 3 2 5 3 6 9 11 14 20 21 20 17 15 15 14 13 11 10 8 8 11 12 13 13 12
3 1 1 6 4 5 5 3 4 4 3 4 4 5 2 2 4 5 5 6 5 2 2 3 5 7 9 9 11 15 14 15 15 17 18 15 12 14 17 18 18 18 18 17
2 2 4 5 1 1 2 1 2 4 3 3 8 6 7 6 7 7 7 8 9 7 4 2 3 4 6 10 7 5 10 13 15 16 17 18 21 22 21 22 22 22 22 22
4 2 1 2 4 3 4 7 7 8 8 9 7 14 13 9 9 9 7 7 5 7 5 3 2 1 2 3 5 4 4 4 8 14 18 23 24 23 24 25 26 27 25 24
2 1 3 3 4 7 8 8 12 15 15 15 17 19 8 14 10 5 3 4 6 5 7 6 5 4 3 5 6 8 10 12 14 16 18 23 26 28 28 29 31 29 28 29
1 3 2 3 1 5 7 8 8 5 9 7 12 9 4 3 4 6 5 6 7 5 4 5 4 4 6 9 9 12 14 16 19 22 25 28 31 34 35 36 34 34 35 34
3 4 2 2 4 3 6 5 3 5 8 7 4 4 6 4 3 4 4 5 6 5 4 4 4 5 7 9 12 14 17 18 19 22 24 24 26 25 27 28 31 34 36 36
5 4 2 2 3 7 6 4 3 3 3 6 9 6 2 4 3 1 5 4 2 2 2 3 5 10 11 8 12 16 20 20 22 21 24 23 24 25 27 29 28 27 28 30
8 5 3 3 2 4 2 10 13 1 2 5 1 5 6 0 3 3 4 4 6 7 8 10 9 6 8 12 19 24 22 22 21 23 23 26 26 28 28 28 29 31 33 32
3 2 7 6 3 6 5 12 6 4 2 4 4 1 2 0 3 4 5 5 5 5 2 7 11 14 20 24 26 21 20 21 26 25 26 29 29 29 30 31 29 27 27 28
3 2 2 3 4 6 2 7 2 1 5 5 4 4 3 4 5 4 6 5 4 4 8 13 14 19 24 25 23 23 24 28 26 27 29 27 27 28 27 27 27 26 25 26
2 3 1 4 4 2 3 5 1 1 3 4 4 3 5 6 4 6 5 5 4 6 10 14 15 19 21 22 21 22 24 22 27 26 26 27 27 26 26 26 26 25 24 23
3 2 2 1 1 3 5 4 5 6 4 3 2 4 5 4 5 5 5 6 6 10 14 16 17 19 21 21 21 22 26 25 25 26 25 25 25 25 25 22 20 20 21 22
4 2 2 4 2 1 6 4 5 3 3 5 5 3 4 5 5 5 6 8 8 14 18 17 19 18 21 24 25 24 24 25 25 25 25 24 24 23 23 23 23 24 24 23
2 2 2 4 2 2 0 1 3 3 4 4 3 7 6 6 7 7 10 10 13 17 19 19 20 21 24 24 24 25 24 23 24 24 23 23 24 24 22 23 26 25 29 31
Wind_Direction
190 152 221 236 222 171 220 237 247 273 271 258 236 237 241 247 208 255 255 238 234 200 222 217 211 205 185 197 209 210 201 201 202 196 200 212 220 226 235 245 249 257 263 269
350 232 229 230 232 216 208 241 259 274 273 162 301 299 274 260 229 204 219 234 241 259 214 196 201 186 185 189 197 204 205 196 199 203 203 202 219 228 235 241 249 258 265 274
190 238 20 191 265 248 247 205 256 213 321 268 301 309 331 312 253 221 212 199 225 222 216 193 185 190 183 189 192 197 198 197 196 200 205 212 213 218 223 242 260 275 294 303
220 269 252 241 245 188 271 229 240 262 128 253 62 274 304 332 327 20 269 288 266 232 219 215 193 186 179 184 183 180 175 176 180 184 186 190 196 193 220 233 256 289 324 327
231 264 171 280 228 160 242 281 201 236 187 117 314 83 273 335 317 300 297 237 260 244 254 243 207 195 180 173 170 167 166 168 171 179 188 184 171 171 172 191 260 316 347 360
242 250 229 236 265 227 265 115 47 47 92 62 234 140 284 242 259 314 317 321 292 241 247 232 174 147 147 167 168 166 164 161 162 163 160 160 163 165 164 211 294 333 348 15
296 260 218 224 276 32 73 51 309 326 345 215 130 93 233 292 304 277 283 330 338 320 206 166 155 138 137 148 155 151 147 144 146 147 151 158 161 183 224 226 254 310 329 354
201 316 182 164 191 199 153 146 149 221 222 272 321 235 246 294 85 32 74 71 42 25 40 72 92 126 129 136 141 141 139 139 147 152 158 174 191 197 203 204 203 206 320 359
196 254 357 67 299 162 185 98 185 104 16 73 258 289 315 3 44 32 65 81 73 47 25 67 57 54 97 118 128 141 151 155 165 174 190 202 205 203 193 178 183 208 275 354
204 288 4 346 0 13 136 165 87 10 170 255 292 264 231 250 135 53 42 62 95 106 86 68 87 101 113 121 134 159 173 176 183 173 166 161 155 163 173 184 208 240 278 322
12 104 276 27 32 59 358 357 61 95 155 160 267 261 276 222 192 141 97 38 92 96 102 96 106 124 140 146 150 151 152 153 160 167 174 185 194 206 208 229 254 267 278 294
13 111 264 258 264 212 94 97 99 146 215 231 196 256 320 55 309 347 289 197 101 92 101 149 162 159 161 163 166 167 168 175 188 198 200 208 217 218 229 248 262 273 277 285
343 28 42 335 4 23 61 48 89 68 66 226 184 257 206 214 295 305 302 268 186 221 187 187 200 176 183 193 180 181 192 209 212 212 211 213 220 236 248 254 257 262 269 274
80 84 169 194 195 166 293 252 203 162 182 230 240 297 283 269 271 263 239 268 322 325 296 187 204 216 203 206 227 264 268 256 244 229 226 226 230 238 246 256 260 259 265 270
75 165 332 285 302 293 257 288 288 210 221 224 223 229 243 258 262 255 251 264 266 286 325 276 252 355 351 39 50 55 43 342 269 252 250 248 253 260 262 260 262 261 260 260
352 243 20 288 273 277 284 277 253 256 255 249 245 254 239 250 269 262 266 137 100 70 55 44 60 48 35 24 2 351 342 327 318 306 293 286 280 275 268 263 264 262 260 262
137 115 35 267 59 330 295 247 250 261 231 219 233 243 218 238 101 114 98 107 108 94 62 36 10 331 335 328 322 313 315 314 307 300 297 295 292 289 285 280 271 263 261 259
168 115 148 285 350 235 239 307 99 50 20 17 76 111 102 115 112 121 123 91 63 44 22 349 341 335 321 324 321 320 319 313 312 308 306 303 300 298 297 291 282 278 270 260
171 134 196 221 245 297 322 7 32 357 312 9 359 356 58 120 179 308 16 66 85 337 294 276 324 327 326 337 338 333 324 320 318 313 308 307 304 301 299 295 293 293 289 285
169 153 175 175 175 248 36 349 346 251 245 21 349 311 296 223 182 237 336 329 338 336 349 349 359 14 349 333 327 322 315 313 304 300 296 296 292 287 283 282 281 280 279 275
153 184 214 209 216 282 8 334 324 211 246 350 7 316 18 16 212 262 320 324 328 331 59 360 342 330 323 323 321 307 304 294 296 296 297 295 290 285 283 282 280 278 277 273
209 216 195 190 214 258 12 355 318 249 292 318 318 316 282 251 280 282 297 316 354 24 331 329 317 311 315 313 308 298 295 297 296 299 295 290 291 289 286 285 282 279 276 275
224 215 209 221 225 241 188 238 152 247 267 282 296 283 285 287 290 308 303 321 322 309 305 309 302 303 303 301 297 290 293 301 301 297 293 291 291 290 288 285 281 275 272 272
320 183 216 151 231 213 185 192 200 205 248 304 301 285 312 300 304 297 319 325 317 314 314 314 309 302 298 303 304 299 302 302 300 297 297 297 295 292 287 286 285 278 268 268
221 301 268 263 258 181 256 280 275 317 3 338 344 8 335 323 326 328 316 312 309 309 308 307 301 296 300 308 303 303 305 307 303 300 298 294 290 288 288 281 277 274 269 259
209 192 173 243 282 208 52 344 23 41 352 358 7 326 342 24 340 321 306 303 309 307 309 307 307 307 303 304 306 307 305 303 300 297 296 293 291 288 285 282 284 277 273 275